ELECTRON KICK STAGE R/B

Satellite information

Favourite Embed

Satellite Type and Status

ROCKET BODYIN ORBIT

Key statistics

Satellite ELECTRON KICK STAGE R/B at a glance.

Uptime

447

Days in orbit

Revolutions

≈ 14.9

Per day

Orbit

LEO

Low Earth Orbit

Inclination

53.0

Latest

Satellite identification and parameters

Extended collection of information and parameters for ELECTRON KICK STAGE R/B.

Object identification

Identified? True

Debris? False

Object name: ELECTRON KICK STAGE R/B

International designator: 2024-142B

Object number (NORAD): 60420

Object ID (CCSDS): 60420

Country: UNITED STATES OF AMERICA (US)

Current information (Y/N): Y

RCS size: MEDIUM

Orbital parameters

Period: 96.552 minutes

Inclination: 53.0051 deg

SMA: 6971.644 km

Apoapsis: 601.81 km

Periapsis: 585.207 km

RAAN: 329.9983 deg

Eccentricy: 0.0011908

Argument of periapsis: 137.8482 deg

Mean anomaly: 222.3417 deg

Mean motion: 14.91420131 rev/day

Mean motion (dot): 0.00004793 rev/day2

B* drag term: 0.00049872 1/REarth

Two-line elements (TLE)

Creation date: Oct. 31, 2025, 11:16 p.m.

Reference frame: TEME

Reference center: EARTH

Epoch: Oct. 31, 2025, 6:27 p.m. UTC

TLE line 0: 0 ELECTRON KICK STAGE R/B

TLE line 1: 1 60420U 24142B 25304.76896497 .00004793 00000-0 49872-3 0 9991

TLE line 2: 2 60420 53.0051 329.9983 0011908 137.8482 222.3417 14.91420131 66440

Live tracking on map

Real-time ground track for satellite ELECTRON KICK STAGE R/B.

In-orbit conjunctions

There are no conjunctions computed for ELECTRON KICK STAGE R/B, at the moment. Check back to stay up to date, as we update our databases every day.

Go to all conjunctions

Associated space launch

Payload consists of a single SAR Earth-imaging Acadia satellite, a new generation satellite designed, manufactured, and operated by Capella Space.

ELECTRON KICK STAGE R/B was lifted into orbit during the mission ‘Electron | A Sky Full of SARs (Capella Acadia 3)’, on board a Electron space rocket.

The launch took place on Aug. 11, 2024, 1:18 p.m. from Rocket Lab Launch Complex 1B.

For more information about the launch, click the button.

Launch to space Electron | A Sky Full of SARs (Capella Acadia 3)
Electron | A Sky Full of SARs (Capella Acadia 3)

Agency: Capella Space

Status: Launch Successful

Launch date: Aug. 11, 2024, 1:18 p.m. UTC

Rocket: Electron

Launch pad: Rocket Lab Launch Complex 1B

Location: Rocket Lab Launch Complex 1, Mahia Peninsula, New Zealand

...

Latest news about this satellite

News about space launch
Rocket Lab launches Capella Space SAR satellite

Rocket Lab launched a Capella Space radar imaging satellite Aug. 11 on a mission that illustrated the flexibility offered by, but also the challenges facing, small launch vehicles.


Newsletter sign-up

Weekly statistics, charts and insights to help you stay on top of the space industry.